Year,Month,Day,Hour,Minute,Value (Times are PST for temperature in C)
2009,06,03,00,00,17.20
2009,06,03,00,01,17.20
2009,06,03,00,02,17.20
2009,06,03,00,03,17.20
2009,06,03,00,04,17.30
2009,06,03,00,05,17.40
2009,06,03,00,06,17.40
2009,06,03,00,07,17.50
2009,06,03,00,08,17.60
2009,06,03,00,09,17.60
2009,06,03,00,10,17.60
2009,06,03,00,11,17.50
2009,06,03,00,12,17.50
2009,06,03,00,13,17.50
2009,06,03,00,14,17.40
2009,06,03,00,15,17.40
2009,06,03,00,16,17.40
2009,06,03,00,17,17.30
2009,06,03,00,18,17.30
2009,06,03,00,19,17.30
2009,06,03,00,20,17.20
2009,06,03,00,21,17.20
2009,06,03,00,22,17.20
2009,06,03,00,23,17.20
2009,06,03,00,24,17.10
2009,06,03,00,25,17.00
2009,06,03,00,26,17.00
2009,06,03,00,27,17.10
2009,06,03,00,28,17.10
2009,06,03,00,29,17.10
2009,06,03,00,30,17.10
2009,06,03,00,31,17.10
2009,06,03,00,32,17.10
2009,06,03,00,33,17.10
2009,06,03,00,34,17.10
2009,06,03,00,35,17.10
2009,06,03,00,36,17.10
2009,06,03,00,37,17.10
2009,06,03,00,38,17.10
2009,06,03,00,39,17.10
2009,06,03,00,40,17.10
2009,06,03,00,41,17.10
2009,06,03,00,42,17.10
2009,06,03,00,43,17.10
2009,06,03,00,44,17.10
2009,06,03,00,45,17.10
2009,06,03,00,46,17.10
2009,06,03,00,47,17.10
2009,06,03,00,48,17.10
2009,06,03,00,49,17.00
2009,06,03,00,50,17.00
2009,06,03,00,51,17.00
2009,06,03,00,52,17.00
2009,06,03,00,53,17.00
2009,06,03,00,54,17.10
2009,06,03,00,55,17.10
2009,06,03,00,56,17.10
2009,06,03,00,57,17.10
2009,06,03,00,58,17.10
2009,06,03,00,59,17.10
2009,06,03,01,00,17.10
2009,06,03,01,01,17.00
2009,06,03,01,02,17.00
2009,06,03,01,03,17.00
2009,06,03,01,04,17.00
2009,06,03,01,05,17.00
2009,06,03,01,06,17.00
2009,06,03,01,07,17.00
2009,06,03,01,08,17.00
2009,06,03,01,09,17.00
2009,06,03,01,10,17.00
2009,06,03,01,11,16.90
2009,06,03,01,12,16.90
2009,06,03,01,13,16.80
2009,06,03,01,14,16.80
2009,06,03,01,15,16.70
2009,06,03,01,16,16.60
2009,06,03,01,17,16.60
2009,06,03,01,18,16.50
2009,06,03,01,19,16.40
2009,06,03,01,20,16.30
2009,06,03,01,21,16.20
2009,06,03,01,22,16.20
2009,06,03,01,23,16.20
2009,06,03,01,24,16.10
2009,06,03,01,25,16.10
2009,06,03,01,26,16.10
2009,06,03,01,27,16.10
2009,06,03,01,28,16.00
2009,06,03,01,29,16.00
2009,06,03,01,30,16.00
2009,06,03,01,31,16.00
2009,06,03,01,32,16.00
2009,06,03,01,33,16.00
2009,06,03,01,34,16.00
2009,06,03,01,35,16.00
2009,06,03,01,36,16.00
2009,06,03,01,37,16.00
2009,06,03,01,38,16.00
2009,06,03,01,39,16.00
2009,06,03,01,40,15.90
2009,06,03,01,41,15.90
2009,06,03,01,42,15.90
2009,06,03,01,43,15.90
2009,06,03,01,44,15.90
2009,06,03,01,45,15.90
2009,06,03,01,46,15.90
2009,06,03,01,47,15.90
2009,06,03,01,48,15.90
2009,06,03,01,49,15.90
2009,06,03,01,50,15.90
2009,06,03,01,51,15.90
2009,06,03,01,52,15.90
2009,06,03,01,53,15.80
2009,06,03,01,54,15.80
2009,06,03,01,55,15.80
2009,06,03,01,56,15.80
2009,06,03,01,57,15.70
2009,06,03,01,58,15.70
2009,06,03,01,59,15.60
2009,06,03,02,00,15.50
2009,06,03,02,01,15.50
2009,06,03,02,02,15.40
2009,06,03,02,03,15.40
2009,06,03,02,04,15.40
2009,06,03,02,05,15.30
2009,06,03,02,06,15.30
2009,06,03,02,07,15.30
2009,06,03,02,08,15.20
2009,06,03,02,09,15.20
2009,06,03,02,10,15.10
2009,06,03,02,11,15.10
2009,06,03,02,12,15.10
2009,06,03,02,13,15.20
2009,06,03,02,14,15.20
2009,06,03,02,15,15.20
2009,06,03,02,16,15.20
2009,06,03,02,17,15.10
2009,06,03,02,18,15.10
2009,06,03,02,19,15.10
2009,06,03,02,20,15.00
2009,06,03,02,21,15.00
2009,06,03,02,22,15.00
2009,06,03,02,23,15.10
2009,06,03,02,24,15.10
2009,06,03,02,25,15.30
2009,06,03,02,26,15.50
2009,06,03,02,27,15.70
2009,06,03,02,28,15.90
2009,06,03,02,29,16.10
2009,06,03,02,30,16.30
2009,06,03,02,31,16.50
2009,06,03,02,32,16.70
2009,06,03,02,33,16.80
2009,06,03,02,34,16.90
2009,06,03,02,35,17.00
2009,06,03,02,36,17.10
2009,06,03,02,37,17.10
2009,06,03,02,38,17.10
2009,06,03,02,39,17.10
2009,06,03,02,40,17.10
2009,06,03,02,41,17.10
2009,06,03,02,42,17.10
2009,06,03,02,43,17.10
2009,06,03,02,44,17.10
2009,06,03,02,45,17.20
2009,06,03,02,46,17.20
2009,06,03,02,47,17.20
2009,06,03,02,48,17.20
2009,06,03,02,49,17.20
2009,06,03,02,50,17.20
2009,06,03,02,51,17.30
2009,06,03,02,52,17.30
2009,06,03,02,53,17.30
2009,06,03,02,54,17.30
2009,06,03,02,55,17.30
2009,06,03,02,56,17.30
2009,06,03,02,57,17.30
2009,06,03,02,58,17.20
2009,06,03,02,59,17.10
2009,06,03,03,00,16.90
2009,06,03,03,01,16.80
2009,06,03,03,02,16.70
2009,06,03,03,03,16.70
2009,06,03,03,04,16.70
2009,06,03,03,05,16.60
2009,06,03,03,06,16.60
2009,06,03,03,07,16.60
2009,06,03,03,08,16.60
2009,06,03,03,09,16.50
2009,06,03,03,10,16.50
2009,06,03,03,11,16.50
2009,06,03,03,12,16.40
2009,06,03,03,13,16.40
2009,06,03,03,14,16.40
2009,06,03,03,15,16.30
2009,06,03,03,16,16.30
2009,06,03,03,17,16.30
2009,06,03,03,18,16.30
2009,06,03,03,19,16.20
2009,06,03,03,20,16.20
2009,06,03,03,21,16.10
2009,06,03,03,22,16.00
2009,06,03,03,23,16.00
2009,06,03,03,24,15.90
2009,06,03,03,25,15.90
2009,06,03,03,26,15.80
2009,06,03,03,27,15.70
2009,06,03,03,28,15.70
2009,06,03,03,29,15.70
2009,06,03,03,30,15.60
2009,06,03,03,31,15.60
2009,06,03,03,32,15.60
2009,06,03,03,33,15.60
2009,06,03,03,34,15.60
2009,06,03,03,35,15.50
2009,06,03,03,36,15.50
2009,06,03,03,37,15.40
2009,06,03,03,38,15.40
2009,06,03,03,39,15.40
2009,06,03,03,40,15.30
2009,06,03,03,41,15.20
2009,06,03,03,42,15.10
2009,06,03,03,43,15.00
2009,06,03,03,44,15.00
2009,06,03,03,45,14.90
2009,06,03,03,46,14.80
2009,06,03,03,47,14.70
2009,06,03,03,48,14.60
2009,06,03,03,49,14.50
2009,06,03,03,50,14.40
2009,06,03,03,51,14.30
2009,06,03,03,52,14.30
2009,06,03,03,53,14.20
2009,06,03,03,54,14.20
2009,06,03,03,55,14.10
2009,06,03,03,56,14.10
2009,06,03,03,57,14.10
2009,06,03,03,58,14.10
2009,06,03,03,59,14.20
2009,06,03,04,00,14.20
2009,06,03,04,01,14.30
2009,06,03,04,02,14.30
2009,06,03,04,03,14.30
2009,06,03,04,04,14.40
2009,06,03,04,05,14.40
2009,06,03,04,06,14.40
2009,06,03,04,07,14.50
2009,06,03,04,08,14.50
2009,06,03,04,09,14.60
2009,06,03,04,10,14.60
2009,06,03,04,11,14.60
2009,06,03,04,12,14.70
2009,06,03,04,13,14.70
2009,06,03,04,14,14.80
2009,06,03,04,15,14.80
2009,06,03,04,16,14.80
2009,06,03,04,17,14.90
2009,06,03,04,18,14.90
2009,06,03,04,19,15.00
2009,06,03,04,20,15.00
2009,06,03,04,21,15.00
2009,06,03,04,22,15.00
2009,06,03,04,23,15.00
2009,06,03,04,24,15.00
2009,06,03,04,25,15.00
2009,06,03,04,26,15.00
2009,06,03,04,27,15.00
2009,06,03,04,28,14.90
2009,06,03,04,29,14.90
2009,06,03,04,30,14.80
2009,06,03,04,31,14.80
2009,06,03,04,32,14.80
2009,06,03,04,33,14.80
2009,06,03,04,34,14.80
2009,06,03,04,35,14.80
2009,06,03,04,36,14.80
2009,06,03,04,37,14.70
2009,06,03,04,38,14.70
2009,06,03,04,39,14.70
2009,06,03,04,40,14.60
2009,06,03,04,41,14.60
2009,06,03,04,42,14.60
2009,06,03,04,43,14.60
2009,06,03,04,44,14.60
2009,06,03,04,45,14.60
2009,06,03,04,46,14.60
2009,06,03,04,47,14.60
2009,06,03,04,48,14.60
2009,06,03,04,49,14.70
2009,06,03,04,50,14.70
2009,06,03,04,51,14.70
2009,06,03,04,52,14.70
2009,06,03,04,53,14.70
2009,06,03,04,54,14.70
2009,06,03,04,55,14.70
2009,06,03,04,56,14.60
2009,06,03,04,57,14.60
2009,06,03,04,58,14.60
2009,06,03,04,59,14.60
2009,06,03,05,00,14.60
2009,06,03,05,01,14.50
2009,06,03,05,02,14.50
2009,06,03,05,03,14.40
2009,06,03,05,04,14.40
2009,06,03,05,05,14.30
2009,06,03,05,06,14.30
2009,06,03,05,07,14.20
2009,06,03,05,08,14.20
2009,06,03,05,09,14.20
2009,06,03,05,10,14.20
2009,06,03,05,11,14.30
2009,06,03,05,12,14.40
2009,06,03,05,13,14.50
2009,06,03,05,14,14.60
2009,06,03,05,15,14.70
2009,06,03,05,16,14.70
2009,06,03,05,17,14.80
2009,06,03,05,18,14.80
2009,06,03,05,19,14.90
2009,06,03,05,20,15.00
2009,06,03,05,21,15.00
2009,06,03,05,22,15.00
2009,06,03,05,23,15.00
2009,06,03,05,24,15.00
2009,06,03,05,25,15.10
2009,06,03,05,26,15.10
2009,06,03,05,27,15.10
2009,06,03,05,28,15.00
2009,06,03,05,29,15.00
2009,06,03,05,30,15.00
2009,06,03,05,31,15.00
2009,06,03,05,32,14.90
2009,06,03,05,33,14.80
2009,06,03,05,34,14.70
2009,06,03,05,35,14.60
2009,06,03,05,36,14.50
2009,06,03,05,37,14.50
2009,06,03,05,38,14.40
2009,06,03,05,39,14.30
2009,06,03,05,40,14.30
2009,06,03,05,41,14.30
2009,06,03,05,42,14.30
2009,06,03,05,43,14.40
2009,06,03,05,44,14.60
2009,06,03,05,45,14.70
2009,06,03,05,46,14.90
2009,06,03,05,47,15.00
2009,06,03,05,48,15.20
2009,06,03,05,49,15.40
2009,06,03,05,50,15.50
2009,06,03,05,51,15.50
2009,06,03,05,52,15.60
2009,06,03,05,53,15.60
2009,06,03,05,54,15.70
2009,06,03,05,55,15.70
2009,06,03,05,56,15.70
2009,06,03,05,57,15.70
2009,06,03,05,58,15.60
2009,06,03,05,59,15.60
2009,06,03,06,00,15.60
2009,06,03,06,01,15.60
2009,06,03,06,02,15.60
2009,06,03,06,03,15.60
2009,06,03,06,04,15.60
2009,06,03,06,05,15.60
2009,06,03,06,06,15.60
2009,06,03,06,07,15.60
2009,06,03,06,08,15.60
2009,06,03,06,09,15.60
2009,06,03,06,10,15.60
2009,06,03,06,11,15.60
2009,06,03,06,12,15.50
2009,06,03,06,13,15.50
2009,06,03,06,14,15.50
2009,06,03,06,15,15.50
2009,06,03,06,16,15.50
2009,06,03,06,17,15.50
2009,06,03,06,18,15.50
2009,06,03,06,19,15.50
2009,06,03,06,20,15.50
2009,06,03,06,21,15.40
2009,06,03,06,22,15.40
2009,06,03,06,23,15.40
2009,06,03,06,24,15.30
2009,06,03,06,25,15.30
2009,06,03,06,26,15.30
2009,06,03,06,27,15.30
2009,06,03,06,28,15.30
2009,06,03,06,29,15.30
2009,06,03,06,30,15.30
2009,06,03,06,31,15.40
2009,06,03,06,32,15.40
2009,06,03,06,33,15.50
2009,06,03,06,34,15.60
2009,06,03,06,35,15.70
2009,06,03,06,36,15.80
2009,06,03,06,37,15.90
2009,06,03,06,38,16.00
2009,06,03,06,39,16.10
2009,06,03,06,40,16.20
2009,06,03,06,41,16.20
2009,06,03,06,42,16.30
2009,06,03,06,43,16.30
2009,06,03,06,44,16.40
2009,06,03,06,45,16.40
2009,06,03,06,46,16.50
2009,06,03,06,47,16.50
2009,06,03,06,48,16.60
2009,06,03,06,49,16.60
2009,06,03,06,50,16.60
2009,06,03,06,51,16.60
2009,06,03,06,52,16.60
2009,06,03,06,53,16.60
2009,06,03,06,54,16.60
2009,06,03,06,55,16.70
2009,06,03,06,56,16.70
2009,06,03,06,57,16.70
2009,06,03,06,58,16.80
2009,06,03,06,59,16.80
2009,06,03,07,00,16.90
2009,06,03,07,01,16.90
2009,06,03,07,02,17.00
2009,06,03,07,03,17.10
2009,06,03,07,04,17.20
2009,06,03,07,05,17.30
2009,06,03,07,06,17.40
2009,06,03,07,07,17.40
2009,06,03,07,08,17.50
2009,06,03,07,09,17.60
2009,06,03,07,10,17.60
2009,06,03,07,11,17.70
2009,06,03,07,12,17.70
2009,06,03,07,13,17.80
2009,06,03,07,14,17.80
2009,06,03,07,15,17.90
2009,06,03,07,16,18.00
2009,06,03,07,17,18.10
2009,06,03,07,18,18.20
2009,06,03,07,19,18.20
2009,06,03,07,20,18.30
2009,06,03,07,21,18.30
2009,06,03,07,22,18.30
2009,06,03,07,23,18.40
2009,06,03,07,24,18.50
2009,06,03,07,25,18.50
2009,06,03,07,26,18.60
2009,06,03,07,27,18.70
2009,06,03,07,28,18.80
2009,06,03,07,29,18.90
2009,06,03,07,30,19.00
2009,06,03,07,31,19.10
2009,06,03,07,32,19.20
2009,06,03,07,33,19.30
2009,06,03,07,34,19.40
2009,06,03,07,35,19.50
2009,06,03,07,36,19.60
2009,06,03,07,37,19.60
2009,06,03,07,38,19.70
2009,06,03,07,39,19.80
2009,06,03,07,40,19.80
2009,06,03,07,41,19.80
2009,06,03,07,42,19.80
2009,06,03,07,43,19.80
2009,06,03,07,44,19.80
2009,06,03,07,45,19.90
2009,06,03,07,46,19.90
2009,06,03,07,47,19.90
2009,06,03,07,48,20.00
2009,06,03,07,49,20.00
2009,06,03,07,50,20.00
2009,06,03,07,51,20.10
2009,06,03,07,52,20.10
2009,06,03,07,53,20.10
2009,06,03,07,54,20.10
2009,06,03,07,55,20.20
2009,06,03,07,56,20.20
2009,06,03,07,57,20.20
2009,06,03,07,58,20.20
2009,06,03,07,59,20.20
2009,06,03,08,00,20.30
2009,06,03,08,01,20.30
2009,06,03,08,02,20.40
2009,06,03,08,03,20.40
2009,06,03,08,04,20.50
2009,06,03,08,05,20.60
2009,06,03,08,06,20.60
2009,06,03,08,07,20.60
2009,06,03,08,08,20.70
2009,06,03,08,09,20.80
2009,06,03,08,10,20.90
2009,06,03,08,11,21.00
2009,06,03,08,12,21.00
2009,06,03,08,13,21.10
2009,06,03,08,14,21.10
2009,06,03,08,15,21.20
2009,06,03,08,16,21.20
2009,06,03,08,17,21.30
2009,06,03,08,18,21.30
2009,06,03,08,19,21.30
2009,06,03,08,20,21.30
2009,06,03,08,21,21.40
2009,06,03,08,22,21.40
2009,06,03,08,23,21.40
2009,06,03,08,24,21.40
2009,06,03,08,25,21.50
2009,06,03,08,26,21.40
2009,06,03,08,27,21.40
2009,06,03,08,28,21.40
2009,06,03,08,29,21.40
2009,06,03,08,30,21.40
2009,06,03,08,31,21.40
2009,06,03,08,32,21.50
2009,06,03,08,33,21.50
2009,06,03,08,34,21.60
2009,06,03,08,35,21.60
2009,06,03,08,36,21.70
2009,06,03,08,37,21.70
2009,06,03,08,38,21.80
2009,06,03,08,39,21.80
2009,06,03,08,40,21.90
2009,06,03,08,41,21.90
2009,06,03,08,42,22.00
2009,06,03,08,43,22.10
2009,06,03,08,44,22.10
2009,06,03,08,45,22.10
2009,06,03,08,46,22.20
2009,06,03,08,47,22.20
2009,06,03,08,48,22.20
2009,06,03,08,49,22.20
2009,06,03,08,50,22.30
2009,06,03,08,51,22.30
2009,06,03,08,52,22.40
2009,06,03,08,53,22.40
2009,06,03,08,54,22.50
2009,06,03,08,55,22.60
2009,06,03,08,56,22.60
2009,06,03,08,57,22.60
2009,06,03,08,58,22.50
2009,06,03,08,59,22.50
2009,06,03,09,00,22.50
2009,06,03,09,01,22.40
2009,06,03,09,02,22.40
2009,06,03,09,03,22.50
2009,06,03,09,04,22.40
2009,06,03,09,05,22.40
2009,06,03,09,06,22.40
2009,06,03,09,07,22.40
2009,06,03,09,08,22.50
2009,06,03,09,09,22.50
2009,06,03,09,10,22.60
2009,06,03,09,11,22.60
2009,06,03,09,12,22.50
2009,06,03,09,13,22.50
2009,06,03,09,14,22.40
2009,06,03,09,15,22.40
2009,06,03,09,16,22.50
2009,06,03,09,17,22.60
2009,06,03,09,18,22.60
2009,06,03,09,19,22.70
2009,06,03,09,20,22.70
2009,06,03,09,21,22.70
2009,06,03,09,22,22.70
2009,06,03,09,23,22.70
2009,06,03,09,24,22.70
2009,06,03,09,25,22.80
2009,06,03,09,26,22.90
2009,06,03,09,27,23.00
2009,06,03,09,28,23.00
2009,06,03,09,29,23.10
2009,06,03,09,30,23.10
2009,06,03,09,31,23.10
2009,06,03,09,32,23.10
2009,06,03,09,33,23.10
2009,06,03,09,34,23.10
2009,06,03,09,35,23.10
2009,06,03,09,36,23.20
2009,06,03,09,37,23.20
2009,06,03,09,38,23.20
2009,06,03,09,39,23.20
2009,06,03,09,40,23.20
2009,06,03,09,41,23.30
2009,06,03,09,42,23.30
2009,06,03,09,43,23.30
2009,06,03,09,44,23.30
2009,06,03,09,45,23.30
2009,06,03,09,46,23.30
2009,06,03,09,47,23.40
2009,06,03,09,48,23.40
2009,06,03,09,49,23.50
2009,06,03,09,50,23.50
2009,06,03,09,51,23.60
2009,06,03,09,52,23.60
2009,06,03,09,53,23.60
2009,06,03,09,54,23.60
2009,06,03,09,55,23.70
2009,06,03,09,56,23.80
2009,06,03,09,57,23.80
2009,06,03,09,58,23.80
2009,06,03,09,59,23.80
2009,06,03,10,00,23.90
2009,06,03,10,01,24.00
2009,06,03,10,02,24.00
2009,06,03,10,03,24.00
2009,06,03,10,04,24.10
2009,06,03,10,05,24.10
2009,06,03,10,06,24.10
2009,06,03,10,07,24.10
2009,06,03,10,08,24.10
2009,06,03,10,09,24.10
2009,06,03,10,10,24.10
2009,06,03,10,11,24.10
2009,06,03,10,12,24.10
2009,06,03,10,13,24.00
2009,06,03,10,14,24.00
2009,06,03,10,15,23.90
2009,06,03,10,16,23.80
2009,06,03,10,17,23.80
2009,06,03,10,18,23.70
2009,06,03,10,19,23.70
2009,06,03,10,20,23.60
2009,06,03,10,21,23.60
2009,06,03,10,22,23.60
2009,06,03,10,23,23.50
2009,06,03,10,24,23.50
2009,06,03,10,25,23.50
2009,06,03,10,26,23.60
2009,06,03,10,27,23.60
2009,06,03,10,28,23.60
2009,06,03,10,29,23.60
2009,06,03,10,30,23.60
2009,06,03,10,31,23.60
2009,06,03,10,32,23.70
2009,06,03,10,33,23.70
2009,06,03,10,34,23.70
2009,06,03,10,35,23.70
2009,06,03,10,36,23.70
2009,06,03,10,37,23.70
2009,06,03,10,38,23.60
2009,06,03,10,39,23.60
2009,06,03,10,40,23.60
2009,06,03,10,41,23.60
2009,06,03,10,42,23.60
2009,06,03,10,43,23.60
2009,06,03,10,44,23.60
2009,06,03,10,45,23.60
2009,06,03,10,46,23.60
2009,06,03,10,47,23.70
2009,06,03,10,48,23.70
2009,06,03,10,49,23.70
2009,06,03,10,50,23.70
2009,06,03,10,51,23.70
2009,06,03,10,52,23.70
2009,06,03,10,53,23.70
2009,06,03,10,54,23.80
2009,06,03,10,55,23.80
2009,06,03,10,56,23.80
2009,06,03,10,57,23.80
2009,06,03,10,58,23.80
2009,06,03,10,59,23.80
2009,06,03,11,00,23.70
2009,06,03,11,01,23.70
2009,06,03,11,02,23.80
2009,06,03,11,03,23.80
2009,06,03,11,04,23.90
2009,06,03,11,05,24.00
2009,06,03,11,06,24.10
2009,06,03,11,07,24.30
2009,06,03,11,08,24.40
2009,06,03,11,09,24.40
2009,06,03,11,10,24.50
2009,06,03,11,11,24.50
2009,06,03,11,12,24.50
2009,06,03,11,13,24.50
2009,06,03,11,14,24.50
2009,06,03,11,15,24.60
2009,06,03,11,16,24.60
2009,06,03,11,17,24.70
2009,06,03,11,18,24.80
2009,06,03,11,19,24.90
2009,06,03,11,20,24.90
2009,06,03,11,21,24.90
2009,06,03,11,22,24.90
2009,06,03,11,23,24.90
2009,06,03,11,24,24.90
2009,06,03,11,25,24.90
2009,06,03,11,26,24.90
2009,06,03,11,27,24.90
2009,06,03,11,28,24.90
2009,06,03,11,29,24.80
2009,06,03,11,30,24.80
2009,06,03,11,31,24.80
2009,06,03,11,32,24.80
2009,06,03,11,33,24.80
2009,06,03,11,34,24.70
2009,06,03,11,35,24.70
2009,06,03,11,36,24.80
2009,06,03,11,37,24.90
2009,06,03,11,38,24.90
2009,06,03,11,39,25.00
2009,06,03,11,40,25.00
2009,06,03,11,41,25.10
2009,06,03,11,42,25.20
2009,06,03,11,43,25.30
2009,06,03,11,44,25.50
2009,06,03,11,45,25.60
2009,06,03,11,46,25.70
2009,06,03,11,47,25.70
2009,06,03,11,48,25.70
2009,06,03,11,49,25.70
2009,06,03,11,50,25.80
2009,06,03,11,51,25.80
2009,06,03,11,52,25.80
2009,06,03,11,53,25.80
2009,06,03,11,54,25.70
2009,06,03,11,55,25.60
2009,06,03,11,56,25.50
2009,06,03,11,57,25.50
2009,06,03,11,58,25.40
2009,06,03,11,59,25.50
2009,06,03,12,00,25.60
2009,06,03,12,01,25.70
2009,06,03,12,02,25.70
2009,06,03,12,03,25.80
2009,06,03,12,04,25.80
2009,06,03,12,05,25.90
2009,06,03,12,06,25.90
2009,06,03,12,07,26.00
2009,06,03,12,08,26.10
2009,06,03,12,09,26.30
2009,06,03,12,10,26.40
2009,06,03,12,11,26.50
2009,06,03,12,12,26.50
2009,06,03,12,13,26.50
2009,06,03,12,14,26.50
2009,06,03,12,15,26.60
2009,06,03,12,16,26.70
2009,06,03,12,17,26.70
2009,06,03,12,18,26.70
2009,06,03,12,19,26.60
2009,06,03,12,20,26.50
2009,06,03,12,21,26.50
2009,06,03,12,22,26.50
2009,06,03,12,23,26.60
2009,06,03,12,24,26.70
2009,06,03,12,25,26.80
2009,06,03,12,26,26.90
2009,06,03,12,27,26.90
2009,06,03,12,28,26.90
2009,06,03,12,29,26.90
2009,06,03,12,30,26.90
2009,06,03,12,31,26.90
2009,06,03,12,32,26.90
2009,06,03,12,33,26.90
2009,06,03,12,34,26.90
2009,06,03,12,35,26.90
2009,06,03,12,36,27.00
2009,06,03,12,37,27.00
2009,06,03,12,38,27.00
2009,06,03,12,39,27.00
2009,06,03,12,40,26.90
2009,06,03,12,41,26.90
2009,06,03,12,42,26.90
2009,06,03,12,43,26.90
2009,06,03,12,44,26.80
2009,06,03,12,45,26.70
2009,06,03,12,46,26.60
2009,06,03,12,47,26.60
2009,06,03,12,48,26.50
2009,06,03,12,49,26.40
2009,06,03,12,50,26.40
2009,06,03,12,51,26.30
2009,06,03,12,52,26.20
2009,06,03,12,53,26.30
2009,06,03,12,54,26.40
2009,06,03,12,55,26.50
2009,06,03,12,56,26.50
2009,06,03,12,57,26.60
2009,06,03,12,58,26.60
2009,06,03,12,59,26.70
2009,06,03,13,00,26.90
2009,06,03,13,01,27.10
2009,06,03,13,02,27.20
2009,06,03,13,03,27.20
2009,06,03,13,04,27.30
2009,06,03,13,05,27.30
2009,06,03,13,06,27.30
2009,06,03,13,07,27.20
2009,06,03,13,08,27.20
2009,06,03,13,09,27.10
2009,06,03,13,10,27.10
2009,06,03,13,11,27.10
2009,06,03,13,12,27.10
2009,06,03,13,13,27.10
2009,06,03,13,14,27.10
2009,06,03,13,15,27.00
2009,06,03,13,16,27.00
2009,06,03,13,17,27.10
2009,06,03,13,18,27.10
2009,06,03,13,19,27.10
2009,06,03,13,20,27.20
2009,06,03,13,21,27.20
2009,06,03,13,22,27.40
2009,06,03,13,23,27.50
2009,06,03,13,24,27.60
2009,06,03,13,25,27.60
2009,06,03,13,26,27.70
2009,06,03,13,27,27.70
2009,06,03,13,28,27.80
2009,06,03,13,29,27.80
2009,06,03,13,30,27.80
2009,06,03,13,31,27.80
2009,06,03,13,32,27.90
2009,06,03,13,33,27.90
2009,06,03,13,34,27.90
2009,06,03,13,35,27.90
2009,06,03,13,36,28.00
2009,06,03,13,37,28.10
2009,06,03,13,38,28.10
2009,06,03,13,39,28.10
2009,06,03,13,40,28.00
2009,06,03,13,41,28.10
2009,06,03,13,42,28.10
2009,06,03,13,43,28.10
2009,06,03,13,44,28.10
2009,06,03,13,45,28.10
2009,06,03,13,46,28.10
2009,06,03,13,47,28.10
2009,06,03,13,48,28.20
2009,06,03,13,49,28.30
2009,06,03,13,50,28.40
2009,06,03,13,51,28.40
2009,06,03,13,52,28.30
2009,06,03,13,53,28.40
2009,06,03,13,54,28.40
2009,06,03,13,55,28.50
2009,06,03,13,56,28.60
2009,06,03,13,57,28.70
2009,06,03,13,58,28.80
2009,06,03,13,59,28.90
2009,06,03,14,00,29.00
2009,06,03,14,01,29.10
2009,06,03,14,02,29.20
2009,06,03,14,03,29.20
2009,06,03,14,04,29.20
2009,06,03,14,05,29.20
2009,06,03,14,06,29.10
2009,06,03,14,07,29.00
2009,06,03,14,08,29.00
2009,06,03,14,09,29.00
2009,06,03,14,10,28.90
2009,06,03,14,11,29.00
2009,06,03,14,12,29.00
2009,06,03,14,13,29.10
2009,06,03,14,14,29.20
2009,06,03,14,15,29.40
2009,06,03,14,16,29.40
2009,06,03,14,17,29.40
2009,06,03,14,18,29.30
2009,06,03,14,19,29.20
2009,06,03,14,20,29.20
2009,06,03,14,21,29.10
2009,06,03,14,22,28.90
2009,06,03,14,23,28.80
2009,06,03,14,24,28.70
2009,06,03,14,25,28.70
2009,06,03,14,26,28.70
2009,06,03,14,27,28.80
2009,06,03,14,28,28.80
2009,06,03,14,29,28.80
2009,06,03,14,30,28.70
2009,06,03,14,31,28.70
2009,06,03,14,32,28.80
2009,06,03,14,33,28.90
2009,06,03,14,34,28.90
2009,06,03,14,35,28.90
2009,06,03,14,36,28.80
2009,06,03,14,37,28.70
2009,06,03,14,38,28.50
2009,06,03,14,39,28.50
2009,06,03,14,40,28.50
2009,06,03,14,41,28.50
2009,06,03,14,42,28.40
2009,06,03,14,43,28.40
2009,06,03,14,44,28.30
2009,06,03,14,45,28.30
2009,06,03,14,46,28.20
2009,06,03,14,47,28.20
2009,06,03,14,48,28.10
2009,06,03,14,49,28.20
2009,06,03,14,50,28.20
2009,06,03,14,51,28.30
2009,06,03,14,52,28.40
2009,06,03,14,53,28.50
2009,06,03,14,54,28.60
2009,06,03,14,55,28.80
2009,06,03,14,56,28.80
2009,06,03,14,57,28.80
2009,06,03,14,58,28.80
2009,06,03,14,59,28.70
2009,06,03,15,00,28.60
2009,06,03,15,01,28.50
2009,06,03,15,02,28.50
2009,06,03,15,03,28.60
2009,06,03,15,04,28.70
2009,06,03,15,05,28.80
2009,06,03,15,06,28.90
2009,06,03,15,07,29.00
2009,06,03,15,08,29.10
2009,06,03,15,09,29.20
2009,06,03,15,10,29.20
2009,06,03,15,11,29.30
2009,06,03,15,12,29.40
2009,06,03,15,13,29.50
2009,06,03,15,14,29.60
2009,06,03,15,15,29.60
2009,06,03,15,16,29.70
2009,06,03,15,17,29.70
2009,06,03,15,18,29.70
2009,06,03,15,19,29.70
2009,06,03,15,20,29.60
2009,06,03,15,21,29.40
2009,06,03,15,22,29.30
2009,06,03,15,23,29.20
2009,06,03,15,24,29.20
2009,06,03,15,25,29.20
2009,06,03,15,26,29.30
2009,06,03,15,27,29.30
2009,06,03,15,28,29.30
2009,06,03,15,29,29.40
2009,06,03,15,30,29.50
2009,06,03,15,31,29.60
2009,06,03,15,32,29.70
2009,06,03,15,33,29.70
2009,06,03,15,34,29.60
2009,06,03,15,35,29.60
2009,06,03,15,36,29.60
2009,06,03,15,37,29.70
2009,06,03,15,38,29.70
2009,06,03,15,39,29.70
2009,06,03,15,40,29.70
2009,06,03,15,41,29.70
2009,06,03,15,42,29.80
2009,06,03,15,43,29.80
2009,06,03,15,44,29.80
2009,06,03,15,45,29.90
2009,06,03,15,46,29.90
2009,06,03,15,47,29.80
2009,06,03,15,48,29.90
2009,06,03,15,49,30.00
2009,06,03,15,50,30.10
2009,06,03,15,51,30.10
2009,06,03,15,52,30.20
2009,06,03,15,53,30.20
2009,06,03,15,54,30.20
2009,06,03,15,55,30.20
2009,06,03,15,56,30.20
2009,06,03,15,57,30.20
2009,06,03,15,58,30.20
2009,06,03,15,59,30.20
2009,06,03,16,00,30.20
2009,06,03,16,01,30.30
2009,06,03,16,02,30.30
2009,06,03,16,03,30.20
2009,06,03,16,04,30.20
2009,06,03,16,05,30.30
2009,06,03,16,06,30.30
2009,06,03,16,07,30.30
2009,06,03,16,08,30.30
2009,06,03,16,09,30.40
2009,06,03,16,10,30.40
2009,06,03,16,11,30.40
2009,06,03,16,12,30.30
2009,06,03,16,13,30.10
2009,06,03,16,14,29.90
2009,06,03,16,15,29.70
2009,06,03,16,16,29.50
2009,06,03,16,17,29.40
2009,06,03,16,18,29.20
2009,06,03,16,19,29.10
2009,06,03,16,20,29.00
2009,06,03,16,21,29.00
2009,06,03,16,22,29.00
2009,06,03,16,23,29.00
2009,06,03,16,24,29.00
2009,06,03,16,25,29.00
2009,06,03,16,26,28.90
2009,06,03,16,27,28.90
2009,06,03,16,28,28.80
2009,06,03,16,29,28.80
2009,06,03,16,30,28.90
2009,06,03,16,31,29.10
2009,06,03,16,32,29.20
2009,06,03,16,33,29.20
2009,06,03,16,34,29.30
2009,06,03,16,35,29.40
2009,06,03,16,36,29.40
2009,06,03,16,37,29.50
2009,06,03,16,38,29.60
2009,06,03,16,39,29.60
2009,06,03,16,40,29.60
2009,06,03,16,41,29.60
2009,06,03,16,42,29.70
2009,06,03,16,43,29.80
2009,06,03,16,44,29.90
2009,06,03,16,45,29.90
2009,06,03,16,46,29.90
2009,06,03,16,47,29.90
2009,06,03,16,48,29.90
2009,06,03,16,49,29.90
2009,06,03,16,50,29.90
2009,06,03,16,51,29.80
2009,06,03,16,52,29.70
2009,06,03,16,53,29.70
2009,06,03,16,54,29.70
2009,06,03,16,55,29.70
2009,06,03,16,56,29.80
2009,06,03,16,57,29.90
2009,06,03,16,58,29.90
2009,06,03,16,59,29.90
2009,06,03,17,00,29.90
2009,06,03,17,01,29.90
2009,06,03,17,02,30.00
2009,06,03,17,03,30.00
2009,06,03,17,04,30.10
2009,06,03,17,05,30.10
2009,06,03,17,06,30.20
2009,06,03,17,07,30.30
2009,06,03,17,08,30.40
2009,06,03,17,09,30.50
2009,06,03,17,10,30.60
2009,06,03,17,11,30.70
2009,06,03,17,12,30.80
2009,06,03,17,13,30.90
2009,06,03,17,14,31.00
2009,06,03,17,15,31.10
2009,06,03,17,16,31.10
2009,06,03,17,17,31.20
2009,06,03,17,18,31.20
2009,06,03,17,19,31.20